Abischthof, метеограме

Abischthof: време по сату
Четвтак, 06 Аугуста
Време Падавине Температура Осећа се Притисак Влажност Ветар
10:00 0 мм +20.2° +21° 728.000 мм.ж.с 67% 1 м/с, СИ
11:00 0 мм +21.6° +22.3° 728.000 мм.ж.с 63% 2 м/с, СИ
12:00 0 мм +22.9° +23.6° 728.000 мм.ж.с 59% 2 м/с, СИ
13:00 0 мм +24.3° +24.9° 728.000 мм.ж.с 54% 2 м/с, СИ
14:00 0 мм +24.5° +25.2° 728.000 мм.ж.с 56% 2 м/с, СИ
15:00 0 мм +24.7° +25.6° 728.000 мм.ж.с 58% 2 м/с, СИ
16:00 0 мм +24.9° +26° 728.000 мм.ж.с 60% 3 м/с, СИ
17:00 0 мм +23.6° +25° 728.000 мм.ж.с 68% 2 м/с, СИ
18:00 0 мм +22.2° +23.9° 728.000 мм.ж.с 76% 2 м/с, СИ
19:00 0 мм +20.9° +22.7° 728.000 мм.ж.с 84% 2 м/с, СИ
20:00 0 мм +19.5° +21.3° 728.000 мм.ж.с 88% 2 м/с, СИ
21:00 0 мм +18.1° +19.8° 728.000 мм.ж.с 92% 1 м/с, СИ
22:00 0 мм +16.7° +18.3° 728.000 мм.ж.с 96% 1 м/с, СИ
23:00 0 мм +16.3° +17.8° 728.000 мм.ж.с 96% 1 м/с, СИ
Петак, 07 Аугуста
Време Падавине Температура Осећа се Притисак Влажност Ветар
00:00 0 мм +15.8° +17.3° 728.000 мм.ж.с 96% 1 м/с, СИ
01:00 0 мм +15.4° +16.8° 728.000 мм.ж.с 96% 1 м/с, СИ
02:00 0 мм +15.1° +16.4° 728.000 мм.ж.с 96% 1 м/с, СИ
03:00 0 мм +14.8° +16° 728.000 мм.ж.с 96% 1 м/с, СИ
04:00 0 мм +14.5° +15.7° 728.000 мм.ж.с 97% 1 м/с, СИ
05:00 0 мм +15.3° +16.6° 728.000 мм.ж.с 96% 1 м/с, СИ
06:00 0 мм +16° +17.4° 728.000 мм.ж.с 94% 0 м/с, СИ
07:00 0 мм +16.8° +18.3° 728.000 мм.ж.с 93% 0 м/с, СИ
08:00 0 мм +18.4° +20° 728.000 мм.ж.с 88% 1 м/с, СИ
09:00 0 мм +20° +21.6° 728.000 мм.ж.с 82% 1 м/с, СИ
10:00 0 мм +21.6° +23.2° 728.000 мм.ж.с 77% 1 м/с, СИ
11:00 0 мм +23.1° +24.7° 728.000 мм.ж.с 72% 2 м/с, СИ
12:00 0 мм +24.6° +26.1° 728.000 мм.ж.с 67% 2 м/с, СИ
13:00 0 мм +26.1° +27.5° 728.000 мм.ж.с 62% 2 м/с, СИ
14:00 0 мм +26.1° +27.6° 728.000 мм.ж.с 62% 2 м/с, СИ
15:00 0 мм +26.2° +27.7° 728.000 мм.ж.с 63% 2 м/с, СИ
16:00 0 мм +26.2° +27.9° 728.000 мм.ж.с 64% 2 м/с, СИ
17:00 0 мм +25° +26.9° 728.000 мм.ж.с 71% 2 м/с, СИ
18:00 0 мм +23.8° +25.9° 728.000 мм.ж.с 78% 2 м/с, СИ
19:00 0 мм +22.6° +24.9° 728.000 мм.ж.с 85% 1 м/с, СИ
20:00 0 мм +21.2° +23.4° 728.000 мм.ж.с 88% 1 м/с, СИ
21:00 0 мм +19.9° +21.9° 728.000 мм.ж.с 91% 1 м/с, СИ
22:00 0 мм +18.6° +20.5° 728.000 мм.ж.с 95% 1 м/с, СИ
23:00 0 мм +18.1° +19.9° 728.000 мм.ж.с 95% 1 м/с, СИ
Субота, 08 Аугуста
Време Падавине Температура Осећа се Притисак Влажност Ветар
00:00 0 мм +17.6° +19.3° 728.000 мм.ж.с 95% 1 м/с, СИ
01:00 0 мм +17.1° +18.7° 728.000 мм.ж.с 95% 0 м/с, СИ
02:00 0 мм +16.7° +18.3° 728.000 мм.ж.с 95% 0 м/с, СИ
03:00 0 мм +16.4° +17.9° 728.000 мм.ж.с 95% 0 м/с, СИ
04:00 0 мм +16° +17.5° 728.000 мм.ж.с 95% 0 м/с, СИ
05:00 0 мм +16.8° +18.4° 728.000 мм.ж.с 94% 0 м/с, СИ
06:00 0 мм +17.6° +19.3° 728.000 мм.ж.с 93% 0 м/с, СИ
07:00 0 мм +18.4° +20.1° 728.000 мм.ж.с 92% 0 м/с, И
08:00 0 мм +20.6° +22.4° 728.000 мм.ж.с 84% 0 м/с, И
09:00 0 мм +22.8° +24.7° 729.000 мм.ж.с 77% 0 м/с, И

Такође

Meteograms hourly weather Мапе времена Преглед времена
Meteograms hourly weather Мапе времена Преглед времена
 
Време у Србији:
О проjекту
© meteoprog.rs 2003-2020.
Meteoprog.ua - погода в Украине 0.0777
sitemap